Location: Mt. Bigelow
(32.4165°N, 110.7345°W)
Time: 13:50:26
(UTC-07:00)

Tiangong 2 - Visible Passes

Search period start: 22 February 2018 00:00
Search period end: 04 March 2018 00:00
Orbit: 384 x 388 km, 42.8° (Epoch: 22 February)

Date Brightness Start Highest point End Pass type
(mag) Time Alt. Az. Time Alt. Az. Time Alt. Az.
22 Feb 1.1 19:09:50 10° NW 19:12:58 61° NNE 19:14:35 25° ESE visible
23 Feb 2.7 19:47:51 10° W 19:50:38 28° SW 19:51:14 26° SSW visible
24 Feb 1.5 18:48:36 10° WNW 18:51:44 62° SSW 18:54:51 10° SE visible
25 Feb 4.0 19:27:32 10° WSW 19:29:14 14° SW 19:30:55 10° S visible
